Regional Weather Roundup
Issued by NWS

Home | Current Version | Previous Version | Graphics & Text | Print | Product List | Glossary On
Versions: 1 2 3 4 5 6 7 8 9 10 11 12 13 14 15 16 17 18 19 20 21 22 23 24 25 26 27 28
000
ASUS45 KBOU 221410
RWRCO

WEATHER ROUNDUP FOR COLORADO
NATIONAL WEATHER SERVICE DENVER/BOULDER CO
700 AM MST WED NOV 22 2017

NOTE: "FAIR" INDICATES FEW OR NO CLOUDS BELOW 12000 FEET WITH NO
SIGNIFICANT WEATHER AND/OR OBSTRUCTIONS TO VISIBILITY.

COZ001>005-013-030-031-221500-
...NORTHWEST COLORADO...

CITY           SKY/WX    TMP DP  RH WIND       PRES   REMARKS
CRAIG          CLOUDY    34  31  88 NE5       30.45S WCI  30
HAYDEN         CLOUDY    36  33  89 E7        30.47R
MEEKER         FAIR      32  30  92 CALM      30.47S
RABBIT EARS PA CLOUDY   N/A N/A N/A W12G20    30.51S HAZE
STEAMBOAT SPGS CLOUDY    33  33 100 CALM      30.46R
WALDEN         CLOUDY    37  30  75 SW15      30.44S
$$

COZ006>008-011-221500-
...WEST CENTRAL VALLEYS...

CITY           SKY/WX    TMP DP  RH WIND       PRES   REMARKS
GRAND JUNCTION FAIR      32  26  78 E6        30.45R WCI  26
MONTROSE       FAIR      30  26  85 SE8       30.48S WCI  22
EAGLE          NOT AVBL
RIFLE          FAIR      30  29  96 E5        30.49R WCI  25
DELTA          FAIR      31  24  74 CALM      30.47S
NUCLA          FAIR      32  27  80 CALM      30.50R
$$

COZ017>023-064>068-221500-
...SOUTHWEST COLORADO...

CITY           SKY/WX    TMP DP  RH WIND       PRES   REMARKS
DURANGO        FAIR      25  18  74 NE6       30.42S WCI  18
CORTEZ         FAIR      29  22  75 NE7       30.42R WCI  22
PAGOSA SPRINGS FAIR      29  20  68 CALM      30.43F
TELLURIDE      FAIR      33  22  63 SE6       30.54R WCI  28
WOLF CREEK PAS FAIR      32   9  37 W5        30.62F WCI  27
$$

COZ009-010-012-014-032>034-037-058>063-221500-
...CENTRAL COLORADO...

CITY           SKY/WX    TMP DP  RH WIND       PRES   REMARKS
ASPEN          MOCLDY    30  25  81 S6        30.50R WCI  24
BUENA VISTA    FAIR      29  23  79 W6        30.43R WCI  23
COPPER MTN     FOG       30  27  86 MISG      30.58R VSB 1/2
BERTHOUD PASS  CLOUDY    23  12  63 NW37G43   30.52R WCI   4
COTTONWOOD PAS FAIR      41  25  52 CALM      30.47R
GUNNISON       FAIR      21  19  92 CALM      30.52R
KREMMLING      CLOUDY    37  34  87 E5        30.49S
LEADVILLE      MOCLDY    25  21  85 NE8       30.49R WCI  16
MONARCH PASS   MOCLDY    25  23  93 W28G33    30.62R WCI   8
SALIDA         FAIR      44  25  47 NW13      30.46S
SUNLIGHT       FAIR      30  28  93 W6        30.61R WCI  24
WILKERSON PASS FAIR      32  21  64 N10G24    30.52R WCI  24
$$

COZ069>075-221500-
...SAN LUIS VALLEY/SANGRE DE CRISTO MOUNTAINS...

CITY           SKY/WX    TMP DP  RH WIND       PRES   REMARKS
ALAMOSA        FAIR      21  17  84 E5        30.44F WCI  15
DEL NORTE      FAIR      35  17  49 W10G17    30.44F WCI  27
LA VETA PASS   FAIR      28  21  74 SW24        N/A  WCI  14
SAGUACHE       FAIR      34  27  75 NW16      30.45S WCI  23
$$

COZ035-036-038>040-221500-
...NORTHERN COLORADO FRONT RANGE...

CITY           SKY/WX    TMP DP  RH WIND       PRES   REMARKS
DENVER INTL AP MOCLDY    36  27  69 S12       30.23R
DMNS CITY PARK   N/A     40  27  59 SE14      30.23S
AURORA         MOCLDY    40  26  55 S8        30.24S
FRONT RANGE AP MOCLDY    41  30  65 S12G18    30.24R
ERIE MUNI ARPT FAIR      32  30  94 NW5       30.28S WCI  27
BOULDER MUN AP FAIR      34  32  93 CALM      30.21S
CENTENNIAL     MOCLDY    43  26  51 S9        30.25S
BROOMFIELD     MOCLDY    37  32  81 CALM      30.22F
FORT COLLINS   FAIR      33  31  92 E3        30.23S
LONGMONT       FAIR      32  29  91 W5        30.25R WCI  27
$$

COZ041-046-047-076>085-087-088-221500-
...PIKES PEAK/PALMER DIVIDE AND SOUTHERN FOOTHILLS...

CITY           SKY/WX    TMP DP  RH WIND       PRES   REMARKS
COLO. SPRINGS  MOCLDY    36  25  64 NE9       30.28R
A. F. ACADEMY  FAIR      30  26  82 N8        30.29R WCI  23
SCHRIEVER AFB  FAIR      42  21  43 N6        30.28S
CHEYENNE MTN   FAIR      46  19  33 CALM      30.25R
ELLICOTT         N/A    N/A N/A N/A VRB3      30.26S
FALCON         FAIR      34  24  66 NW5       30.31R WCI  30
FORT CARSON    FAIR      34  27  74 N9        30.26R WCI  27
LIMON          FAIR      25  25 100 N5        30.26S WCI  19
MONUMENT HILL  FAIR      34  23  64 SW8       30.32R WCI  27
CANON CITY     FAIR      46  28  49 W8        30.26R
WALSENBURG     FAIR      50  27  40 W14G28    30.29S
TRINIDAD       FAIR      36  28  73 W15       30.30S
$$

COZ042>045-048>051-090-091-221500-
...NORTHEAST COLORADO...

CITY           SKY/WX    TMP DP  RH WIND       PRES   REMARKS
GREELEY ARPT   FAIR      28  26  92 VRB3      30.24R
AKRON          FAIR      35  29  78 W14       30.21S WCI  26
BURLINGTON     FAIR      40  30  67 SW12      30.22S
WRAY           NOT AVBL
YUMA           FAIR      34  30  86 W8        30.20S WCI  27
STERLING       FAIR      30  28  93 SW6       30.20S WCI  24
HOLYOKE        FAIR      37  32  81 W9        30.18S
FORT MORGAN    FAIR      32  29  90 W10       30.23S WCI  24
$$

COZ086-089-092>099-221500-
...SOUTHEAST COLORADO...

CITY           SKY/WX    TMP DP  RH WIND       PRES   REMARKS
PUEBLO         FAIR      28  25  88 W6        30.27R WCI  22
LA JUNTA       FAIR      30  25  81 SW7       30.28S WCI  23
LAMAR          FAIR      24  20  84 SW7       30.26F WCI  16
SPRINGFIELD      N/A     30  26  85 W5        30.26S WCI  25
$$




USA.gov is the U.S. government's official web portal to all federal, state and local government web resources and services.